User: anonymous   Login
Location: Newark
(44.9861°N, 0.2536°E)
Time: 11:34:32
(UTC+00:00)
Language:

DUCHIFAT 1 - Orbit

View from above orbital plane
View from above orbital plane
View from above satellite
View from above satellite

Ground track
Ground track

The orbit data is extracted from the following two-line orbital elements,

1 40021U 14033M   20190.75595595  .00000368  00000-0  43184-4 0  9991
2 40021  97.9428 122.1235 0011843 212.1210 147.9287 14.90924793329066
Epoch (UTC): 08 July 2020 18:08:34
Eccentricity: 0.0011843
inclination: 97.9428°
perigee height: 587 km
apogee height: 603 km
right ascension of ascending node: 122.1235°
argument of perigee: 212.1210°
revolutions per day: 14.90924793
mean anomaly at epoch: 147.9287°
orbit number at epoch: 32906

The dashed part of the orbit path shows where the satellite is in the earth's shadow,  

DLR